This is the latest recevied weather packets stored in our database for station/object DO7ZT-10. If no packets are shown the sender has not sent any weather packets the latest 10 day(s).
| Time | Temp. | Humidity | Pressure | Rain* | Wind** | Luminosity | Snow |
|---|---|---|---|---|---|---|---|
| 1777540753 | 14.44° C | 27% | 1031.8 hPa | - | - | - | - |
| 1777539852 | 12.78° C | 31% | 1032 hPa | - | - | - | - |
| 1777538952 | 12.22° C | 31% | 1031.9 hPa | - | - | - | - |
| 1777538052 | 12.22° C | 31% | 1031.9 hPa | - | - | - | - |
| 1777537152 | 12.22° C | 31% | 1032.1 hPa | - | - | - | - |
| 1777536252 | 10.56° C | 36% | 1032 hPa | - | - | - | - |
| 1777535352 | 10° C | 37% | 1032 hPa | - | - | - | - |
| 1777534452 | 8.89° C | 35% | 1032.1 hPa | - | - | - | - |
| 1777533552 | 8.33° C | 41% | 1032.2 hPa | - | - | - | - |
| 1777532652 | 7.78° C | 43% | 1032.1 hPa | - | - | - | - |
| 1777531752 | 7.22° C | 42% | 1032.2 hPa | - | - | - | - |
| 1777530852 | 6.67° C | 43% | 1032.2 hPa | - | - | - | - |
| 1777529952 | 5.56° C | 43% | 1032.1 hPa | - | - | - | - |
| 1777529051 | 5° C | 45% | 1032 hPa | - | - | - | - |
| 1777528151 | 3.89° C | 55% | 1031.8 hPa | - | - | - | - |
| 1777527251 | 2.78° C | 64% | 1031.9 hPa | - | - | - | - |
| 1777526351 | 2.22° C | 62% | 1031.8 hPa | - | - | - | - |
| 1777525451 | 1.67° C | 65% | 1031.8 hPa | - | - | - | - |
| 1777524551 | 1.11° C | 63% | 1031.7 hPa | - | - | - | - |
| 1777523651 | 0.56° C | 65% | 1031.5 hPa | - | - | - | - |
| 1777522751 | -0.56° C | 66% | 1031.5 hPa | - | - | - | - |
| 1777521851 | -0.56° C | 68% | 1031.5 hPa | - | - | - | - |
| 1777520951 | -0.56° C | 67% | 1031.5 hPa | - | - | - | - |
| 1777520051 | -0.56° C | 66% | 1031.4 hPa | - | - | - | - |
| 1777519151 | -0.56° C | 66% | 1031.3 hPa | - | - | - | - |
* Rain since midnight (hover to see other rain measurements)
** Current wind speed in m/s (hover to see current wind gust speed)